Theta_e
317 317 317 317 317 317 318 318 318 319 319 319 319 319 319 319 319 315 306 313 315 330 340 335 341 337 341 337 338 331 316 314 319 319 322 331 328 337 338 332 334 332 325 329 334
317 317 317 317 317 317 317 317 318 318 318 318 318 318 319 318 312 308 317 328 330 338 334 333 329 333 332 333 335 327 316 318 325 326 323 328 332 333 331 331 325 323 327 330 334
316 316 316 316 317 317 317 317 317 317 317 318 318 318 319 317 308 309 333 330 336 344 336 333 331 330 324 329 330 330 320 324 325 328 328 326 331 334 330 326 326 320 323 328 331
316 316 316 316 316 316 317 317 317 317 317 317 317 319 317 312 299 314 349 336 340 335 324 323 318 311 312 314 324 322 329 330 327 329 329 325 333 331 332 331 332 326 326 328 329
316 316 317 316 316 316 316 316 316 316 316 316 317 318 310 301 301 315 345 334 331 320 316 314 312 310 309 313 318 322 325 328 333 332 327 326 330 331 331 335 329 330 327 326 327
316 316 316 316 317 317 317 316 315 316 317 316 317 318 306 294 309 317 330 325 324 314 311 307 309 312 310 310 317 320 321 323 326 326 321 322 324 330 332 334 330 331 327 328 328
316 316 316 316 316 317 316 315 315 317 321 317 320 315 306 301 313 314 324 321 324 313 309 310 309 310 308 310 316 316 314 317 321 323 323 327 324 326 333 333 330 331 331 331 334
316 316 316 316 316 315 314 314 315 319 317 319 323 315 302 315 316 316 315 316 320 313 310 310 309 308 306 310 307 310 309 305 317 324 323 322 312 328 333 331 329 330 331 332 334
315 315 315 315 314 314 312 313 316 320 322 323 312 308 302 321 313 311 313 313 317 313 309 314 307 301 305 301 296 299 299 307 311 323 323 321 317 328 332 330 328 329 330 332 333
314 314 314 314 313 312 311 313 315 321 320 320 318 301 302 301 303 304 310 316 309 309 306 304 300 296 296 295 293 295 300 303 305 314 321 317 318 327 330 330 329 330 330 331 332
314 313 313 312 311 310 307 296 293 291 293 290 293 299 299 301 305 303 305 313 309 303 297 300 295 293 297 300 300 303 304 305 309 314 316 317 317 325 328 328 328 329 330 331 332
313 313 312 311 310 310 302 295 296 297 288 296 297 296 298 298 296 300 304 307 306 298 301 297 294 299 301 301 300 299 298 300 307 312 310 311 316 325 327 327 328 329 329 330 332
313 312 311 309 309 303 298 297 300 293 286 292 296 296 297 296 295 297 299 303 302 302 300 297 300 304 303 300 299 298 297 299 301 308 309 313 312 320 327 328 329 330 331 332 332
312 311 309 309 300 299 298 299 301 296 283 290 293 297 298 297 294 303 304 300 302 300 302 299 305 303 301 300 300 292 302 303 303 303 298 306 300 316 322 324 326 328 330 331 332
312 310 308 308 297 296 300 301 299 293 277 295 292 301 297 292 296 298 304 301 296 297 299 298 301 301 300 302 304 299 303 302 302 298 299 301 296 307 319 319 323 327 330 332 334
311 309 308 303 298 301 301 298 293 284 279 289 292 291 290 292 294 297 299 304 303 299 299 299 305 304 304 306 306 306 301 300 299 296 292 299 298 296 312 316 323 326 328 331 334
309 307 306 306 295 302 300 292 283 278 290 286 286 288 287 290 291 293 294 293 291 289 289 297 300 303 307 302 305 304 295 288 288 288 291 298 296 301 315 321 323 325 326 327 333
307 306 304 307 305 303 294 287 278 286 284 288 288 286 285 290 290 291 289 289 295 292 288 285 289 300 305 304 301 301 299 289 284 286 292 296 291 298 311 322 326 327 328 329 331
306 298 300 303 306 298 290 280 281 284 288 287 286 284 284 289 288 288 288 289 293 293 285 286 288 297 300 306 307 300 298 301 290 285 287 294 292 299 305 315 322 325 327 328 327
298 294 297 306 299 293 286 284 284 290 290 288 282 285 281 283 283 284 286 293 293 296 294 290 284 293 299 304 306 305 303 294 289 286 282 287 290 295 299 301 312 323 324 327 329
293 292 300 305 295 288 282 282 287 292 293 287 285 283 283 282 283 284 286 293 295 294 296 290 289 290 296 296 298 298 299 296 297 290 291 283 290 297 299 303 305 317 323 325 329
290 287 300 298 288 283 282 287 293 290 292 289 288 286 283 284 283 284 286 290 297 295 290 293 291 288 290 299 299 298 299 293 296 290 287 288 294 302 303 304 303 307 318 323 329
291 288 299 296 283 282 287 291 292 290 289 289 287 288 287 284 281 287 290 295 297 294 291 294 289 280 288 290 296 293 295 296 296 289 287 293 296 301 301 303 306 306 307 318 325
290 285 289 290 288 284 286 288 289 295 293 292 289 288 285 283 285 284 288 294 295 294 300 296 289 283 282 284 289 287 289 292 292 290 291 293 297 300 302 302 304 306 308 311 324
288 285 287 283 284 285 287 288 288 289 294 292 289 290 285 280 281 283 287 288 293 297 294 291 283 285 286 288 289 288 288 290 292 295 294 295 294 298 299 301 308 311 307 308 321
288 288 288 287 288 289 288 287 288 290 290 290 289 291 288 282 283 281 285 284 285 290 290 291 283 285 284 288 289 287 292 294 296 299 296 295 296 299 312 316 319 318 310 310 324
292 294 294 292 290 289 289 290 290 292 293 295 292 290 289 290 290 289 288 287 288 288 287 287 286 282 279 287 289 290 295 297 300 298 298 294 297 309 315 318 319 322 320 314 321
Wind_Speed
19 20 19 19 20 19 19 19 20 19 18 17 16 16 14 13 11 3 10 14 12 14 14 10 7 6 8 4 4 4 2 3 5 6 2 4 4 6 3 8 4 4 7 15 23
20 20 21 21 20 20 19 18 18 18 18 17 15 14 12 10 4 12 15 21 20 14 12 18 12 12 5 5 4 3 2 5 6 8 1 2 8 12 6 12 5 11 19 22 21
22 22 22 22 22 21 20 19 18 17 17 15 13 10 9 4 4 10 6 25 23 19 12 12 11 8 4 3 5 6 5 3 2 9 3 5 12 10 12 3 5 23 27 26 23
24 24 24 24 23 22 21 20 19 18 16 14 10 8 3 2 2 2 2 26 23 14 12 10 8 8 6 6 6 3 9 10 3 9 6 7 9 6 10 6 13 22 30 30 24
25 25 25 24 25 24 23 21 20 19 15 11 7 1 1 1 12 4 10 22 16 13 13 12 14 7 8 7 4 12 10 8 15 15 10 4 12 6 12 10 21 21 24 26 22
25 25 26 26 26 25 25 22 19 19 15 7 7 6 2 4 3 10 13 15 13 18 8 8 11 9 7 4 14 6 14 17 15 12 6 8 5 8 6 18 22 22 24 22 23
25 25 27 27 26 27 27 27 20 19 8 8 8 4 0 17 6 9 9 10 15 20 12 11 5 11 7 2 12 11 9 9 14 10 2 9 3 4 17 18 23 21 19 19 19
25 26 27 29 28 28 27 27 20 7 8 9 9 3 10 6 5 7 4 3 2 5 4 5 6 6 3 4 5 5 5 3 9 7 7 7 3 13 17 21 21 21 19 20 20
24 25 26 28 29 28 29 26 14 4 7 11 5 4 12 6 4 3 7 6 6 2 5 7 5 4 1 2 4 3 4 7 8 10 4 8 4 14 18 19 19 20 20 19 17
27 26 28 28 29 28 29 20 5 8 5 6 2 2 5 9 11 14 5 8 6 9 1 3 4 5 2 5 10 6 4 4 6 4 11 11 6 18 19 19 21 19 19 20 20
28 28 28 29 28 26 15 6 9 6 4 5 10 4 11 8 10 4 5 6 6 5 8 7 7 18 29 18 3 4 4 6 6 6 9 15 9 21 22 16 18 19 18 20 20
27 28 27 30 28 24 3 6 7 5 12 7 13 7 9 1 5 6 6 7 8 9 7 5 18 21 7 7 12 8 5 6 10 5 6 6 17 18 22 27 26 25 23 22 19
26 27 28 30 29 4 1 4 6 5 1 10 5 5 8 2 3 6 2 3 6 12 15 10 5 14 10 12 13 13 13 9 10 5 3 5 7 13 19 6 12 16 18 18 23
28 28 28 31 4 4 5 4 4 4 5 6 8 7 11 4 3 5 5 6 5 17 15 14 17 15 16 17 11 12 12 14 14 3 5 5 5 11 16 22 21 20 21 21 23
29 29 26 10 3 3 5 8 5 5 3 5 5 5 8 8 10 10 12 5 5 11 8 15 15 19 19 23 16 15 6 9 8 3 2 9 4 9 14 19 22 23 24 24 24
32 32 26 1 1 6 8 6 5 6 3 5 5 8 8 8 5 10 8 7 3 6 14 9 9 17 23 12 15 4 4 3 1 3 11 17 8 6 14 25 21 21 24 25 25
32 32 14 2 3 7 6 6 6 4 7 6 5 7 6 8 8 12 9 16 7 8 7 9 22 10 6 18 10 11 8 4 4 6 13 7 8 13 22 25 28 29 29 26 23
34 26 4 4 6 5 5 6 5 3 3 3 3 2 5 8 4 9 7 5 14 4 2 6 12 19 13 12 15 13 15 7 9 4 8 6 9 7 15 18 26 24 29 21 22
25 6 5 4 9 3 7 6 3 2 3 4 2 4 5 5 2 7 6 2 6 9 5 7 9 10 18 14 18 8 21 12 5 4 2 4 5 6 7 13 17 21 21 20 19
6 5 5 12 4 6 6 3 1 3 2 3 3 1 2 4 6 2 4 6 3 10 2 3 7 6 13 11 11 16 9 8 4 10 6 5 5 7 12 12 14 19 21 21 22
4 5 5 14 3 6 4 4 3 3 0 2 4 2 3 1 2 3 0 6 9 10 4 4 2 10 9 8 25 9 11 4 6 5 13 2 9 9 10 15 19 20 23 22 24
4 4 6 8 7 2 2 5 5 5 2 2 1 4 2 2 3 2 1 1 6 7 4 4 4 7 12 17 16 10 11 8 11 13 1 3 16 5 11 13 14 17 19 19 23
4 4 5 6 5 4 7 6 4 4 3 2 2 3 3 4 2 4 3 3 7 3 1 3 2 7 10 1 7 5 6 7 5 5 10 14 17 6 4 4 6 10 17 16 20
3 5 5 6 2 3 6 6 5 5 2 4 4 1 0 3 4 3 4 6 8 4 9 2 4 7 7 9 13 12 24 18 10 9 8 14 18 14 15 10 7 7 11 18 23
2 1 1 5 2 2 4 5 9 5 5 5 3 5 1 4 3 6 5 2 6 6 5 3 6 6 11 20 21 22 24 25 13 13 14 10 12 12 9 6 7 10 11 17 26
2 2 2 3 3 5 4 3 8 5 4 6 3 10 7 6 8 7 6 5 6 3 3 3 4 3 15 21 17 19 18 19 20 19 6 4 13 3 3 3 11 12 9 11 18
1 1 1 3 2 2 2 2 6 12 8 9 4 11 12 9 5 7 8 6 7 8 5 4 2 3 9 8 13 6 7 11 4 17 4 10 4 4 6 12 13 15 12 6 18
Wind_Direction
350 346 344 341 338 336 333 329 325 322 320 316 317 317 315 309 307 230 235 218 192 239 145 150 179 191 175 207 210 150 216 211 162 167 22 105 165 149 46 148 177 153 139 140 149
348 345 342 339 337 335 332 327 321 316 314 314 316 318 315 312 278 243 225 204 203 188 142 159 175 176 179 205 224 172 201 229 178 146 26 174 166 158 165 179 67 90 109 140 148
346 344 341 337 336 335 330 324 316 311 308 308 314 313 320 311 283 244 222 196 192 180 155 161 145 151 189 171 219 185 225 207 214 139 156 236 173 172 151 213 195 148 143 154 156
345 342 340 338 336 333 328 321 313 310 302 303 305 308 324 261 275 62 7 177 183 171 143 162 145 153 169 203 206 238 247 254 155 210 221 254 145 155 164 206 150 157 152 154 163
344 340 337 336 335 332 328 320 317 308 303 291 278 303 128 246 253 329 92 164 166 171 173 165 168 159 182 191 231 238 261 260 246 252 244 226 180 174 200 128 137 148 158 160 164
342 340 337 335 334 331 327 321 323 314 306 265 226 130 155 254 248 8 135 154 179 171 183 160 185 170 180 213 192 202 227 256 265 249 236 171 158 113 137 138 145 156 164 168 170
341 339 335 333 333 330 327 321 332 326 346 151 163 138 219 238 343 7 146 174 179 181 175 203 171 178 180 158 258 264 294 294 273 215 242 115 142 157 148 155 152 163 168 172 175
339 336 335 330 331 328 325 318 335 347 110 136 158 148 251 274 317 317 228 210 211 225 321 166 132 209 191 313 359 180 163 254 275 218 189 150 229 136 154 155 164 170 173 177 182
337 334 333 328 330 327 321 317 326 128 129 143 128 145 275 285 342 351 189 190 153 227 303 174 123 203 10 218 8 300 190 203 286 223 180 177 117 165 168 164 173 181 179 181 188
338 337 332 330 330 329 320 310 334 125 143 184 191 320 293 321 315 313 248 176 149 141 159 197 158 164 143 145 210 190 183 205 228 245 191 202 176 168 179 178 181 186 187 187 192
336 334 333 331 329 326 335 10 14 354 45 231 272 245 268 277 279 315 359 181 114 125 170 205 180 202 210 205 192 179 186 194 237 228 187 219 171 183 182 189 191 189 196 195 198
333 330 334 329 327 322 328 65 123 241 307 257 268 244 266 308 312 344 9 168 179 189 164 139 216 220 213 178 213 246 251 247 288 215 179 231 217 195 180 197 193 187 194 199 197
332 334 336 329 322 6 313 223 107 135 146 299 270 297 298 132 221 308 303 311 210 206 192 199 219 194 205 199 201 219 218 228 235 47 222 112 248 196 202 190 201 203 207 207 200
336 335 335 331 8 322 295 312 316 171 61 283 352 3 357 324 318 18 343 222 275 212 206 228 232 195 193 216 188 214 205 222 252 114 221 160 239 208 205 204 198 202 202 207 206
334 333 335 330 282 308 277 313 317 62 0 8 11 301 344 49 289 350 322 359 257 274 174 214 204 214 210 211 189 228 162 201 232 193 280 248 130 263 208 210 207 206 207 208 205
332 329 335 113 275 260 305 330 57 47 231 8 45 332 25 357 11 319 345 10 26 322 264 246 224 200 220 222 211 159 193 183 70 145 248 247 163 247 190 216 212 211 215 212 201
330 324 329 314 318 303 334 30 45 113 346 13 331 352 38 343 15 13 31 36 17 23 14 284 244 260 195 207 204 196 126 234 241 200 237 222 195 215 202 214 210 210 212 213 206
329 322 266 232 270 333 48 47 85 15 64 332 311 329 31 19 50 2 12 10 31 27 46 21 240 214 221 206 196 204 202 167 187 178 221 179 211 237 198 215 216 217 216 210 200
328 326 339 294 312 80 61 49 176 336 278 340 21 43 340 16 18 32 24 74 33 23 82 356 268 323 291 211 190 199 209 197 94 3 146 222 241 291 194 225 218 217 213 206 204
329 338 287 327 14 59 72 240 210 341 276 74 105 32 305 347 5 71 347 63 18 23 312 74 298 284 303 265 230 205 167 189 206 204 236 281 224 224 175 199 211 220 220 212 204
26 11 272 330 77 54 129 220 292 17 128 131 187 229 251 3 247 228 131 103 17 3 359 40 167 300 334 225 216 205 201 202 150 175 220 271 251 200 204 188 190 207 222 210 201
355 3 323 346 53 40 36 310 296 315 343 346 171 197 204 268 255 271 109 40 57 353 8 62 298 281 252 287 303 287 195 164 201 215 278 186 250 253 214 200 176 203 217 213 204
348 282 329 31 60 338 321 304 293 327 309 309 231 142 178 216 253 223 167 107 104 91 136 51 8 312 306 358 20 356 325 211 221 95 198 220 257 220 236 230 233 189 212 218 209
19 355 336 35 76 48 338 286 311 328 61 345 260 121 358 246 237 226 226 178 106 83 92 123 201 201 261 315 314 290 310 307 298 194 191 220 254 247 281 282 277 247 257 228 205
41 318 171 328 336 315 238 273 306 338 340 354 323 82 359 264 259 208 196 237 85 102 102 112 245 218 254 271 274 273 274 281 283 251 202 224 232 244 253 295 294 272 237 222 204
73 55 346 257 287 312 301 300 313 334 316 302 311 324 306 231 219 238 206 179 205 148 126 195 267 357 287 267 250 248 260 253 248 255 204 221 243 179 75 54 3 342 288 209 189
313 293 122 257 270 264 256 290 285 301 272 252 294 293 278 274 251 249 222 220 217 159 148 189 243 5 265 334 316 197 336 310 110 35 324 207 283 241 48 44 10 355 335 245 193